User: anonymous   Login
Location: Unspecified
(0.0000°N, 0.0000°E)
Time: 00:50:57
(UTC+00:00)
Language:

STARLINK-32655 - Orbit

View from above orbital plane
View from above orbital plane
View from above satellite
View from above satellite

Ground track
Ground track

The orbit is defined by the following mean orbital elements,

1 62202U          26145.48700807 +.00000000 +00000-0 +49729-3 0 00001
2 62202  42.9991 197.2484 0001391 277.2809  82.7884 15.27590592    04
Epoch (UTC): 25 May 2026 11:41:17
Eccentricity: 0.0001391
inclination: 42.9991°
perigee height: 482 km
apogee height: 484 km
right ascension of ascending node: 197.2484°
argument of perigee: 277.2809°
revolutions per day: 15.27590592
mean anomaly at epoch: 82.7884°

The dashed part of the orbit path shows where the satellite is in the earth's shadow,  

DLR